BEIDOU-3 M22

Last updated on Wed Aug 19 2026 00:02:49 GMT+0000 (Coordinated Universal Time)

1 44793U 19078A 26230.36990049 -.00000075 00000+0 00000+0 0 9996 2 44793 53.8760 297.6358 0005185 47.0095 313.0991 1.86227247 45804
UTC large
Height (km)
Speed (km/s)
/
Latitude / Longitude
Inclination (degrees)
Orbital Period (minutes)
Azimuth
Elevation
Range (km)
Doppler Factor

Next 0 passes for location: London (51.5072 / 0.1276)

No passes found over London.
BEIDOU-3 M22